Total_Precipitation_Accumulation
1.32 1.25 1.17 1.12 0.97 0.90 0.87 0.94 0.93 0.82 0.76 0.69 0.58 0.48 0.45 0.45 0.42 0.43 0.43 0.44 0.53 0.73 0.99 1.12 1.10 1.06 1.04 1.10 1.09 1.01 0.95 0.86 0.78 0.74 0.72 0.73 0.69 0.69 0.73 0.73 0.75 0.77 0.78
1.52 1.44 1.28 1.18 1.09 0.99 0.93 0.99 1.01 0.92 0.86 0.77 0.69 0.59 0.53 0.52 0.45 0.42 0.43 0.46 0.48 0.59 0.84 1.11 1.27 1.33 1.35 1.40 1.33 1.21 1.09 0.99 0.92 0.87 0.83 0.84 0.77 0.75 0.78 0.77 0.76 0.76 0.77
1.66 1.63 1.52 1.29 1.15 1.14 1.11 1.10 1.14 1.13 1.02 0.87 0.78 0.70 0.63 0.57 0.51 0.47 0.47 0.46 0.46 0.45 0.61 0.91 1.20 1.34 1.44 1.50 1.53 1.44 1.27 1.12 1.01 0.94 0.89 0.90 0.89 0.84 0.82 0.85 0.88 0.86 0.86
1.77 1.83 1.70 1.56 1.41 1.37 1.34 1.27 1.19 1.11 1.01 0.88 0.79 0.75 0.70 0.66 0.60 0.60 0.60 0.52 0.47 0.41 0.47 0.64 0.84 1.08 1.31 1.38 1.51 1.62 1.45 1.29 1.14 1.01 0.98 1.01 1.04 0.98 0.95 0.97 0.97 0.96 0.96
1.96 2.00 1.94 1.79 1.71 1.63 1.58 1.47 1.33 1.19 1.07 0.95 0.87 0.86 0.84 0.77 0.72 0.68 0.63 0.56 0.53 0.50 0.50 0.52 0.57 0.71 0.91 1.12 1.35 1.58 1.67 1.56 1.34 1.21 1.09 1.06 1.05 1.05 1.09 1.12 1.13 1.12 1.14
2.31 2.18 2.18 2.12 2.01 1.84 1.73 1.70 1.56 1.39 1.22 1.15 1.10 1.00 0.92 0.84 0.81 0.77 0.71 0.64 0.60 0.60 0.64 0.65 0.64 0.64 0.69 0.85 1.16 1.44 1.67 1.77 1.60 1.37 1.23 1.15 1.16 1.17 1.22 1.29 1.34 1.39 1.40
2.65 2.49 2.30 2.33 2.28 2.07 1.82 1.80 1.80 1.65 1.50 1.46 1.42 1.20 1.02 0.91 0.85 0.78 0.80 0.80 0.72 0.66 0.69 0.78 0.83 0.77 0.63 0.65 0.83 1.08 1.35 1.58 1.73 1.67 1.47 1.33 1.31 1.36 1.45 1.55 1.63 1.64 1.62
2.88 2.68 2.51 2.41 2.38 2.34 2.10 1.91 1.96 1.93 1.77 1.72 1.73 1.68 1.47 1.27 1.00 0.85 0.83 0.82 0.79 0.78 0.73 0.73 0.78 0.80 0.77 0.66 0.63 0.75 0.92 1.19 1.52 1.81 1.89 1.76 1.67 1.67 1.75 1.87 1.95 2.00 1.98
3.15 2.95 2.71 2.64 2.58 2.57 2.48 2.28 2.15 2.12 2.05 1.93 1.92 2.09 1.88 1.54 1.19 0.99 0.93 0.90 0.86 0.89 0.88 0.83 0.80 0.80 0.81 0.75 0.70 0.70 0.76 0.92 1.28 1.67 2.01 2.13 2.09 2.11 2.26 2.39 2.43 2.50 2.45
3.20 3.20 3.02 2.79 2.69 2.66 2.62 2.68 2.67 2.50 2.37 2.16 1.99 1.87 1.80 1.63 1.56 1.34 1.09 1.05 0.99 0.93 0.97 0.96 0.90 0.88 0.85 0.84 0.85 0.86 0.88 0.95 1.21 1.66 2.05 2.31 2.44 2.63 2.90 3.03 3.03 3.04 2.90
3.05 3.19 3.16 2.98 2.68 2.52 2.45 2.52 2.63 2.69 2.54 2.31 2.12 1.99 1.86 1.64 1.54 1.58 1.39 1.21 1.18 1.03 0.97 1.02 1.04 1.04 1.05 1.06 1.02 1.07 1.13 1.15 1.39 1.80 2.22 2.62 2.92 3.16 3.40 3.57 3.57 3.49 3.36
2.89 2.96 2.98 2.91 2.76 2.54 2.39 2.40 2.54 2.63 2.67 2.57 2.35 2.13 2.03 1.88 1.63 1.62 1.57 1.41 1.41 1.27 1.12 1.09 1.14 1.19 1.20 1.25 1.26 1.36 1.33 1.40 1.56 1.84 2.29 2.68 2.98 3.19 3.40 3.71 3.87 3.82 3.75
2.78 2.83 2.93 2.85 2.78 2.59 2.48 2.41 2.43 2.43 2.46 2.51 2.45 2.26 2.05 1.89 1.75 1.80 1.84 1.71 1.60 1.46 1.43 1.32 1.21 1.20 1.23 1.28 1.38 1.56 1.43 1.44 1.49 1.68 2.08 2.48 2.59 2.67 2.83 3.08 3.40 3.59 3.63
2.68 2.69 2.83 2.83 2.76 2.67 2.57 2.46 2.38 2.32 2.30 2.30 2.26 2.18 2.04 1.85 1.75 1.80 1.92 2.08 2.07 1.77 1.56 1.48 1.36 1.29 1.28 1.31 1.42 1.59 1.41 1.57 1.53 1.61 1.82 2.03 2.01 1.96 2.08 2.30 2.53 2.80 3.01
2.56 2.52 2.60 2.66 2.64 2.59 2.57 2.51 2.39 2.24 2.17 2.15 2.07 2.00 1.94 1.81 1.71 1.70 1.78 2.00 2.34 2.28 1.84 1.50 1.45 1.40 1.37 1.34 1.48 1.40 1.29 1.57 1.59 1.55 1.57 1.61 1.59 1.58 1.69 1.85 2.04 2.28 2.47
2.43 2.35 2.35 2.43 2.49 2.45 2.43 2.48 2.37 2.20 2.15 2.05 1.98 1.93 1.86 1.78 1.75 1.76 1.82 1.89 2.06 2.23 2.03 1.52 1.35 1.34 1.38 1.36 1.50 1.34 1.30 1.57 1.52 1.49 1.44 1.41 1.42 1.47 1.56 1.71 1.80 1.95 2.18
2.25 2.30 2.26 2.30 2.39 2.43 2.38 2.38 2.37 2.27 2.14 2.01 1.93 1.88 1.82 1.75 1.77 1.74 1.78 1.86 1.91 1.99 1.97 1.53 1.30 1.29 1.40 1.40 1.43 1.34 1.30 1.27 1.22 1.35 1.31 1.30 1.29 1.33 1.45 1.59 1.70 1.78 1.92
2.00 2.03 2.08 2.12 2.15 2.20 2.25 2.26 2.25 2.21 2.16 2.04 1.95 1.91 1.84 1.82 1.91 1.92 1.92 1.91 1.88 1.85 1.85 1.67 1.39 1.30 1.30 1.25 1.22 1.24 1.25 1.24 1.15 1.32 1.30 1.25 1.30 1.34 1.40 1.45 1.53 1.65 1.74
1.88 1.92 1.91 2.00 2.04 2.01 2.07 2.12 2.13 2.14 2.14 2.10 2.04 2.00 1.94 1.93 1.98 1.97 1.94 1.91 1.85 1.80 1.76 1.72 1.54 1.38 1.36 1.30 1.29 1.27 1.24 1.23 1.15 1.25 1.30 1.28 1.31 1.36 1.38 1.44 1.48 1.50 1.53
1.68 1.72 1.75 1.76 1.84 1.88 1.93 2.02 2.09 2.09 2.10 2.10 2.07 2.04 1.98 1.95 1.92 1.87 1.83 1.78 1.78 1.82 1.83 1.82 1.70 1.55 1.48 1.43 1.45 1.48 1.44 1.31 1.24 1.14 1.22 1.21 1.24 1.28 1.31 1.33 1.36 1.36 1.38
1.57 1.62 1.66 1.66 1.67 1.72 1.82 1.92 2.03 2.11 2.12 2.12 2.10 2.03 1.91 1.88 1.82 1.79 1.76 1.71 1.73 1.86 1.93 1.94 1.82 1.67 1.55 1.54 1.56 1.47 1.48 1.43 1.37 1.23 1.20 1.14 1.10 1.07 1.09 1.19 1.29 1.38 1.44
1.58 1.61 1.68 1.72 1.74 1.78 2.01 2.11 2.08 2.09 2.09 2.05 1.96 1.83 1.76 1.76 1.71 1.76 1.79 1.77 1.84 1.99 2.10 2.04 1.86 1.63 1.40 1.32 1.40 1.55 1.68 1.74 1.66 1.31 1.24 1.27 1.19 1.18 1.10 1.08 1.30 1.42 1.53
1.69 1.77 1.79 1.87 1.88 1.90 1.98 1.88 1.92 1.92 1.95 1.94 1.85 1.72 1.63 1.52 1.52 1.40 1.54 1.68 1.72 1.83 1.87 1.81 1.72 1.46 1.32 1.28 1.52 1.79 1.79 1.71 1.47 1.24 1.33 1.47 1.34 1.30 1.20 1.26 1.46 1.41 1.51
1.66 1.82 1.87 1.90 1.90 1.88 1.88 1.75 1.74 1.61 1.60 1.64 1.64 1.62 1.56 1.50 1.43 1.42 1.47 1.55 1.45 1.41 1.42 1.34 1.34 1.34 1.34 1.36 1.58 1.86 1.87 1.85 1.61 1.40 1.40 1.58 1.41 1.35 1.26 1.30 1.48 1.40 1.43
1.54 1.62 1.70 1.73 1.69 1.67 1.68 1.58 1.58 1.47 1.46 1.42 1.39 1.43 1.48 1.42 1.53 1.64 1.59 1.54 1.37 1.22 1.25 1.34 1.41 1.42 1.51 1.54 1.64 2.02 2.21 2.26 2.02 1.60 1.39 1.40 1.30 1.29 1.34 1.37 1.44 1.51 1.46
1.37 1.35 1.38 1.36 1.35 1.35 1.43 1.39 1.39 1.32 1.35 1.32 1.31 1.35 1.50 1.45 1.57 1.66 1.54 1.51 1.42 1.23 1.17 1.17 1.17 1.18 1.18 1.26 1.49 1.73 2.18 2.53 2.20 1.80 1.34 1.39 1.40 1.51 1.82 1.51 1.41 1.43 1.46